Weather History for Tatalina, AK

Change the Weather History Date:

Tuesday, January 15, 2013

  Actual Average Record
Temperature  
Mean Temperature 13 °F -  
Max Temperature 16 °F 6 °F 39 °F (1997)
Min Temperature 10 °F -1 °F -24 °F (2012)
Degree Days  
Heating Degree Days 52    
Moisture  
Dew Point 11 °F    
Average Humidity 91    
Maximum Humidity 95    
Minimum Humidity 85    
Precipitation  
Precipitation 0.00 in - - ()
Sea Level Pressure  
Sea Level Pressure 30.21 in    
Wind  
Wind Speed 6 mph (SSW)    
Max Wind Speed 12 mph    
Max Gust Speed -    
Visibility 9 miles    
Events Snow    
Averages and records for this station are not official NWS values.
T = Trace of Precipitation, MM = Missing Value Source: NWS Daily Summary

Daily Weather History Graph

Daily Weather History Graph

Search for Another Location

Airport:

Trip Planner

Search our weather history database for the weather conditions in past years. The results will help you decide how hot, cold, wet, or windy it might be!

Date:

Astronomy

Jan. 15, 2013 Rise Set
Actual Time 10:36 AM AKST 4:31 PM AKST
Civil Twilight 9:34 AM AKST 5:33 PM AKST
Nautical Twilight 8:33 AM AKST 6:33 PM AKST
Astronomical Twilight 7:38 AM AKST 7:28 PM AKST
Moon 10:56 AM AKST (1/15) 11:35 PM AKST (1/15)
Length of Visible Light 7h 58m
Length of Day
5h 55m
Waxing Crescent, 20% of the Moon is Illuminated
Jan 15
Waxing Crescent
Jan 18
First Quarter
Jan 26
Full
Feb 3
Last Quarter
Feb 9
New

Hourly Weather History & Observations

Time (AKST) Temp. Windchill Dew Point Humidity Pressure Visibility Wind Dir Wind Speed Gust Speed Precip Events Conditions
12:55 AM 10.8 °F 2.7 °F 8.2 °F 90% 30.10 in 10.0 mi SW 4.6 mph - N/A   Scattered Clouds
1:55 AM 10.8 °F 2.7 °F 7.7 °F 87% 30.12 in 10.0 mi SW 4.6 mph - N/A   Partly Cloudy
2:54 AM 10.4 °F 2.2 °F 8.6 °F 92% 30.13 in 9.0 mi SSW 4.6 mph - N/A Snow Light Snow
3:15 AM 10.4 °F -0.4 °F 8.6 °F 92% 30.14 in 10.0 mi SSW 6.9 mph - N/A Snow Light Snow
3:35 AM 12.2 °F 0.7 °F 8.6 °F 85% 30.14 in 7.0 mi SSW 8.1 mph - N/A Snow Light Snow Showers
3:55 AM 12.2 °F -1.8 °F 9.1 °F 88% 30.14 in 10.0 mi SSW 11.5 mph - N/A Snow Light Snow Showers
4:15 AM 12.2 °F -1.0 °F 10.4 °F 92% 30.15 in 10.0 mi SSW 10.4 mph - N/A Snow Light Snow Showers
4:55 AM 12.9 °F -0.2 °F 9.5 °F 86% 30.16 in 10.0 mi SSW 10.4 mph - N/A Snow Light Snow Showers
5:35 AM 12.2 °F 0.7 °F 10.4 °F 92% 30.18 in 10.0 mi SSW 8.1 mph - N/A   Mostly Cloudy
5:55 AM 12.6 °F 2.2 °F 9.5 °F 88% 30.18 in 10.0 mi SW 6.9 mph - N/A   Mostly Cloudy
6:15 AM 12.2 °F 6.1 °F 10.4 °F 92% 30.19 in 10.0 mi SW 3.5 mph - N/A Snow Light Snow Showers
6:35 AM 12.2 °F 6.1 °F 10.4 °F 92% 30.19 in 10.0 mi West 3.5 mph - N/A   Mostly Cloudy
6:55 AM 12.7 °F 6.7 °F 9.9 °F 88% 30.20 in 10.0 mi WSW 3.5 mph - N/A   Overcast
7:15 AM 12.2 °F 4.3 °F 10.4 °F 92% 30.20 in 10.0 mi WSW 4.6 mph - N/A Snow Light Snow Showers
7:55 AM 13.6 °F 7.7 °F 10.4 °F 87% 30.20 in 10.0 mi West 3.5 mph - N/A Snow Light Snow Showers
8:55 AM 13.6 °F 6.0 °F 10.4 °F 87% 30.21 in 10.0 mi SSW 4.6 mph - N/A Snow Light Snow Showers
9:15 AM 14.0 °F 5.1 °F 10.4 °F 86% 30.21 in 10.0 mi South 5.8 mph - N/A   Overcast
9:35 AM 14.0 °F 6.5 °F 10.4 °F 86% 30.22 in 10.0 mi SW 4.6 mph - N/A Snow Light Snow Showers
9:55 AM 13.1 °F 2.8 °F 10.4 °F 89% 30.21 in 10.0 mi SSW 6.9 mph - N/A Snow Light Snow Showers
10:55 AM 14.2 °F 2.2 °F 11.1 °F 88% 30.21 in 10.0 mi South 9.2 mph - N/A Snow Light Snow Showers
11:55 AM 14.0 °F 2.9 °F 12.2 °F 93% 30.13 in 10.0 mi SSW 8.1 mph - N/A Snow Light Snow
12:15 PM 15.8 °F 7.2 °F 12.2 °F 86% 30.23 in 10.0 mi SSW 5.8 mph - N/A   Mostly Cloudy
12:35 PM 15.8 °F 5.1 °F 12.2 °F 86% 30.23 in 10.0 mi South 8.1 mph - N/A Snow Light Snow Showers
12:55 PM 15.6 °F 5.9 °F 12.2 °F 86% 30.23 in 10.0 mi South 6.9 mph - N/A Snow Light Snow Showers
1:35 PM 15.8 °F 6.1 °F 12.2 °F 86% 30.24 in 10.0 mi SSW 6.9 mph - N/A   Mostly Cloudy
1:55 PM 16.2 °F 4.7 °F 12.4 °F 85% 30.24 in 10.0 mi South 9.2 mph - N/A Snow Light Snow Showers
2:35 PM 15.8 °F 6.1 °F 14.0 °F 93% 30.25 in 2.0 mi South 6.9 mph - N/A Snow Light Snow Showers
2:55 PM 16.0 °F 7.4 °F 13.6 °F 90% 30.24 in 2.5 mi SSW 5.8 mph - N/A Snow Light Snow Showers
3:15 PM 15.8 °F 8.6 °F 14.0 °F 93% 30.25 in 2.5 mi SSW 4.6 mph - N/A Snow Light Snow Showers
3:35 PM 15.8 °F 7.2 °F 14.0 °F 93% 30.25 in 3.0 mi South 5.8 mph - N/A Snow Light Snow
3:55 PM 15.6 °F 8.3 °F 14.4 °F 95% 30.25 in 2.5 mi SSW 4.6 mph - N/A Snow Light Snow
4:15 PM 15.8 °F 10.2 °F 14.0 °F 93% 30.25 in 0.5 mi SSW 3.5 mph - N/A Snow Light Snow
4:35 PM 15.8 °F 10.2 °F 14.0 °F 93% 30.25 in 2.0 mi South 3.5 mph - N/A Snow Light Snow
4:55 PM 15.1 °F 7.7 °F 13.3 °F 93% 30.25 in 10.0 mi South 4.6 mph - N/A Snow Light Snow
5:55 PM 14.7 °F 7.3 °F 12.7 °F 92% 30.25 in 10.0 mi Variable 4.6 mph - N/A Snow Light Snow
6:15 PM 14.0 °F 6.5 °F 12.2 °F 93% 30.25 in 10.0 mi SSW 4.6 mph - N/A   Mostly Cloudy
6:35 PM 14.0 °F 6.5 °F 12.2 °F 93% 30.25 in 10.0 mi Variable 4.6 mph - N/A Snow Light Snow Showers
6:55 PM 14.4 °F 8.6 °F 12.7 °F 93% 30.25 in 10.0 mi SSW 3.5 mph - N/A Snow Light Snow Showers
7:35 PM 14.0 °F 6.5 °F 12.2 °F 93% 30.25 in 10.0 mi SSW 4.6 mph - N/A   Overcast
7:55 PM 13.8 °F - 12.6 °F 95% 30.25 in 10.0 mi WSW 2.3 mph - N/A Snow Light Snow Showers
8:55 PM 13.8 °F 8.0 °F 12.2 °F 93% 30.25 in 10.0 mi WSW 3.5 mph - N/A Snow Light Snow Showers
9:35 PM 14.0 °F - 12.2 °F 93% 30.25 in 7.0 mi Variable 1.2 mph - N/A Snow Light Snow Showers
9:55 PM 12.9 °F 5.2 °F 11.8 °F 95% 30.25 in 10.0 mi SSW 4.6 mph - N/A Snow Light Snow Showers
10:15 PM 12.2 °F - 10.4 °F 92% 30.25 in 10.0 mi Variable 2.3 mph - N/A   Clear
10:55 PM 11.7 °F 5.5 °F 10.4 °F 95% 30.25 in 10.0 mi Variable 3.5 mph - N/A   Clear
11:55 PM 11.1 °F 1.7 °F 9.5 °F 93% 30.24 in 10.0 mi SSW 5.8 mph - N/A   Partly Cloudy